Tampa, FL

1:09 AM EDT on August 26, 2016 (GMT -0400)
MacDill Air Force Base

Weather History for KMCF - July, 2014

Change the Weather History Date:

Monday, July 7, 2014

  Actual Average Record
Temperature  
Mean Temperature 79 °F -  
Max Temperature 85 °F 88 °F 96 °F (2016)
Min Temperature 73 °F 72 °F 69 °F (1999)
Cooling Degree Days 14    
Growing Degree Days 29 (Base 50)    
Moisture  
Dew Point 76 °F    
Average Humidity 90    
Maximum Humidity 100    
Minimum Humidity 72    
Precipitation  
Precipitation 0.00 in - - ()
Sea Level Pressure  
Sea Level Pressure 30.10 in    
Wind  
Wind Speed 5 mph (South)    
Max Wind Speed 8 mph    
Max Gust Speed -    
Visibility 10 miles    
Events Rain , Thunderstorm    
Averages and records for this station are not official NWS values.
T = Trace of Precipitation, MM = Missing Value Source: NWS Daily Summary

Daily Weather History Graph

Daily Weather History Graph

Search for Another Location

Airport or City:

Trip Planner

Search our weather history database for the weather conditions in past years. The results will help you decide how hot, cold, wet, or windy it might be!

Date:

Astronomy

Jul. 07, 2014 Rise Set
Actual Time 6:40 AM EDT 8:29 PM EDT
Civil Twilight 6:13 AM EDT 8:56 PM EDT
Nautical Twilight 5:41 AM EDT 9:28 PM EDT
Astronomical Twilight 5:08 AM EDT 10:01 PM EDT
Moon 3:44 PM EDT (7/7) 2:17 AM EDT (7/7)
Length of Visible Light 14h 42m
Length of Day
13h 49m
Waxing Gibbous, 72% of the Moon is Illuminated
Jul 7
Waxing Gibbous
Jul 12
Full
Jul 18
Last Quarter
Jul 26
New
Aug 3
First Quarter

Hourly Weather History & Observations

Time (EDT) Temp. Heat Index Dew Point Humidity Pressure Visibility Wind Dir Wind Speed Gust Speed Precip Events Conditions
12:58 AM 76.3 °F - 74.5 °F 94% 30.07 in 10.0 mi SSE 6.9 mph - N/A   Clear
1:58 AM 76.3 °F - 74.8 °F 95% 30.05 in 10.0 mi South 8.1 mph - N/A   Clear
2:58 AM 75.2 °F - 74.8 °F 99% 30.05 in 10.0 mi SE 3.5 mph - N/A   Clear
3:58 AM 74.8 °F - 74.8 °F 100% 30.05 in 10.0 mi SE 4.6 mph - N/A Thunderstorm Clear
4:58 AM 74.1 °F - 74.1 °F 100% 30.06 in 10.0 mi SE 4.6 mph - N/A   Clear
5:58 AM 74.3 °F - 74.3 °F 100% 30.05 in 10.0 mi Variable 2.3 mph - N/A   Clear
6:58 AM 73.6 °F - 73.6 °F 100% 30.09 in 10.0 mi ESE 3.5 mph - N/A   Clear
7:58 AM 75.6 °F - 75.6 °F 100% 30.10 in 10.0 mi East 3.5 mph - N/A   Clear
9:58 AM 78.1 °F - 76.3 °F 94% 30.14 in 10.0 mi SE 6.9 mph - N/A   Clear
10:58 AM 77.9 °F - 77.7 °F 99% 30.14 in 10.0 mi SSE 6.9 mph - 0.00 in Rain Light Rain
11:19 AM 78.8 °F - 78.8 °F 100% 30.13 in 10.0 mi SSE 1.2 mph - N/A   Clear
11:58 AM 80.2 °F 87.3 °F 79.0 °F 96% 30.14 in 10.0 mi South 4.6 mph - 0.00 in   Partly Cloudy
12:58 PM 81.5 °F 90.2 °F 78.6 °F 91% 30.13 in 10.0 mi WSW 4.6 mph - N/A   Partly Cloudy
1:12 PM 82.4 °F 92.4 °F 78.8 °F 89% 30.12 in 10.0 mi WSW 4.6 mph - N/A   Light Drizzle
1:48 PM 80.6 °F 88.1 °F 78.8 °F 94% 30.11 in 10.0 mi West 4.6 mph - N/A   Partly Cloudy
1:58 PM 81.5 °F 89.7 °F 78.1 °F 89% 30.12 in 10.0 mi SSW 4.6 mph - 0.00 in   Partly Cloudy
2:58 PM 83.8 °F 94.7 °F 78.3 °F 83% 30.11 in 10.0 mi Variable 4.6 mph - N/A   Mostly Cloudy
3:58 PM 84.6 °F 95.5 °F 77.9 °F 80% 30.10 in 10.0 mi WSW 2.3 mph - N/A   Partly Cloudy
4:58 PM 84.0 °F 93.3 °F 76.5 °F 78% 30.10 in 10.0 mi WSW 3.5 mph - N/A   Mostly Cloudy
5:58 PM 84.6 °F 92.4 °F 74.8 °F 72% 30.09 in 10.0 mi SSE 2.3 mph - N/A   Overcast
6:58 PM 85.6 °F 95.0 °F 75.7 °F 72% 30.08 in 10.0 mi WSW 4.6 mph - N/A   Clear
7:58 PM 83.8 °F 92.1 °F 75.4 °F 76% 30.08 in 10.0 mi SW 3.5 mph - N/A   Clear
8:58 PM 80.1 °F 85.2 °F 75.4 °F 86% 30.09 in 10.0 mi WSW 1.2 mph - N/A   Clear
9:58 PM 76.3 °F - 72.0 °F 86% 30.10 in 10.0 mi Calm Calm - 0.00 in   Clear
10:58 PM 75.6 °F - 72.5 °F 90% 30.11 in 10.0 mi Calm Calm - N/A   Clear
11:58 PM 80.2 °F 85.4 °F 75.0 °F 84% 30.12 in 10.0 mi SE 6.9 mph - N/A   Clear